Location: Goettingen
(51.5300°N, 9.9433°E)
Time: 23:39:09
(UTC+01:00)

ISS - Pass Details

Date: 11 November 2019
Orbit: 412 x 421 km, 51.6° (Epoch: 15 November)

Event Time Altitude Azimuth Distance (km) Brightness Sun altitude
Exits shadow 05:47:30 16° 214° (SW) 1,181 -1.7 -16.1°
Drops below altitude 10° 05:49:28 10° 178° (S) 1,498 -0.8 -15.7°
Sets 05:52:06 0° 157° (SSE) 2,356 0.5 -15.3°
